Regional Weather Roundup
Issued by NWS

Home | Current Version | Previous Version | Text Only | Print | Product List | Glossary On
Versions: 1 2 3 4 5 6 7 8 9 10 11 12 13 14 15 16 17 18 19 20 21 22 23 24 25 26 27 28 29 30 31 32 33 34 35 36 37 38 39 40 41 42 43 44 45 46 47 48 49 50
000
ASUS43 KLSX 290557
RWRMO

WEATHER SUMMARY FOR MISSOURI
NATIONAL WEATHER SERVICE SPRINGFIELD MO
100 AM CDT SUN MAY 29 2016

NOTE: "FAIR" INDICATES FEW OR NO CLOUDS BELOW 12,000 FEET WITH NO
       SIGNIFICANT WEATHER AND/OR OBSTRUCTIONS TO VISIBILITY.
       CURRENT SKY AND/OR WEATHER CONDITIONS ARE NOT AVAILABLE FOR
       CHILLICOTHE AND FARMINGTON.

MOZ001>031-035>038-043-044-053-054-290700-
...NORTHERN AND WESTERN MISSOURI...

CITY           SKY/WX    TMP DP  RH WIND       PRES   REMARKS
KANSAS CTY INT CLEAR     62  58  86 SW6       30.02R
6HR MIN TEMP:  61; 6HR MAX TEMP:  74;

LEE`S SUMMIT   CLEAR     66  59  78 S5        30.04R
6HR MIN TEMP:  66; 6HR MAX TEMP:  75;

ST JOSEPH      CLEAR     64  60  87 SE3       30.00R
6HR MIN TEMP:  64; 6HR MAX TEMP:  76;

CHILLICOTHE      N/A     62  60  93 CALM      30.01R
6HR MIN TEMP:  62; 6HR MAX TEMP:  76;


$$
MOZ066>068-077>081-088>096-101>105-290700-
...SOUTHWEST MISSOURI...

CITY           SKY/WX    TMP DP  RH WIND       PRES   REMARKS
SPRINGFIELD    CLEAR     67  61  81 W5        30.06R
6HR MIN TEMP:  63; 6HR MAX TEMP:  78;

JOPLIN         CLEAR     65  63  93 SE3       30.06R
6HR MIN TEMP:  65; 6HR MAX TEMP:  77;


$$
MOZ032>034-039>042-045>050-055>058-069>072-290700-
...CENTRAL MISSOURI...

CITY           SKY/WX    TMP DP  RH WIND       PRES   REMARKS
COLUMBIA       NOT AVBL
JEFFERSON CITY CLEAR     67  63  87 CALM      30.02S
6HR MIN TEMP:  67; 6HR MAX TEMP:  80;

ROLLA          CLOUDY    66  63  90 SW7       30.04R
6HR MIN TEMP:  64; 6HR MAX TEMP:  75; 6HR PCP: TRACE;

SEDALIA        CLEAR     66  61  84 SW6       30.05R
6HR MIN TEMP:  65; 6HR MAX TEMP:  77;

WARRENSBURG    CLEAR     63  61  94 CALM      30.03S

$$
MOZ051-052-059>065-290700-
...EAST CENTRAL MISSOURI...

CITY           SKY/WX    TMP DP  RH WIND       PRES   REMARKS
ST LOUIS INTL  PTCLDY    72  57  59 SW7       30.02R
6HR MIN TEMP:  72; 6HR MAX TEMP:  83;


$$
MOZ072>076-082>087-097>100-106>115-290700-
...SOUTH CENTRAL AND SOUTHEAST MISSOURI...

CITY           SKY/WX    TMP DP  RH WIND       PRES   REMARKS
CAPE GIRARDEAU CLEAR     67  66  97 S5        30.03S
6HR MIN TEMP:  67; 6HR MAX TEMP:  78;

POPLAR BLUFF   CLEAR     69  68  96 CALM      30.04S
6HR MIN TEMP:  69; 6HR MAX TEMP:  80;

WEST PLAINS    CLEAR     68  64  87 W3        30.08R
6HR MIN TEMP:  68; 6HR MAX TEMP:  78;


$$


USA.gov is the U.S. government's official web portal to all federal, state and local government web resources and services.